CPA331 ZBAA-VHHH

Flight info

Callsign CPA331
Flight time N/A
Altitude 37100
Route RUSDO6J RUSDO W45 IPLEV B458 DADGA/K0909S1100 W37 GUSIV/K0926S1130 W37 PEXID/K0930S1100 W37 OMBEB/K0922S1130 R473 NNX/K0915S1160 R473 WYN W18 NLG W23 ZUH R473 SIERA
Aircraft A35K/H-SDE2E3GHIJ3J4J5LM1ORWXY/LB1D1

Departure

Time 2026-05-04 14:34
Airport Beijing Capital International Airport (ZBAA)

Arrival

Time N/A
Airport Hong Kong International Airport (VHHH)
Time Latitude Longitude Altitude Speed Heading
2026-05-04 14:03 40.06665 116.60901 129 ft 0 kts 262°
2026-05-04 14:24 40.06665 116.60902 121 ft 1 kts 262°
2026-05-04 14:25 40.06668 116.60931 116 ft 3 kts 262°
2026-05-04 14:25 40.06674 116.60981 117 ft 2 kts 262°
2026-05-04 14:25 40.06675 116.61003 120 ft 3 kts 290°
2026-05-04 14:26 40.06662 116.61021 118 ft 3 kts 347°
2026-05-04 14:26 40.06640 116.61025 118 ft 2 kts 351°
2026-05-04 14:26 40.06638 116.61025 116 ft 0 kts 350°
2026-05-04 14:27 40.06637 116.61025 116 ft 0 kts 350°
2026-05-04 14:28 40.06653 116.61021 118 ft 8 kts 351°
2026-05-04 14:28 40.06725 116.61009 119 ft 12 kts 353°
2026-05-04 14:28 40.06813 116.60996 118 ft 14 kts 353°
2026-05-04 14:29 40.07037 116.60961 117 ft 22 kts 353°
2026-05-04 14:29 40.07368 116.60910 118 ft 25 kts 353°
2026-05-04 14:30 40.07545 116.60895 118 ft 26 kts
2026-05-04 14:30 40.07692 116.61022 117 ft 26 kts 51°
2026-05-04 14:30 40.07876 116.61216 118 ft 17 kts 353°
2026-05-04 14:31 40.08000 116.61194 117 ft 19 kts 353°
2026-05-04 14:31 40.08289 116.61146 115 ft 23 kts 353°
2026-05-04 14:32 40.08619 116.61094 114 ft 25 kts 353°
2026-05-04 14:32 40.08799 116.61067 116 ft 26 kts 353°
2026-05-04 14:32 40.08979 116.61042 115 ft 19 kts
2026-05-04 14:32 40.09033 116.61170 114 ft 18 kts 83°
2026-05-04 14:33 40.08973 116.61276 114 ft 15 kts 172°
2026-05-04 14:33 40.08853 116.61297 115 ft 27 kts 173°
2026-05-04 14:33 40.08427 116.61364 116 ft 95 kts 173°
2026-05-04 14:33 40.07567 116.61493 119 ft 152 kts 175°
2026-05-04 14:34 40.06526 116.61661 787 ft 144 kts 172°
2026-05-04 14:34 40.05589 116.62037 1436 ft 142 kts 163°
2026-05-04 14:34 40.04709 116.62768 1790 ft 162 kts 148°
2026-05-04 14:34 40.03748 116.63777 1912 ft 194 kts 148°
2026-05-04 14:35 40.02609 116.64945 1815 ft 218 kts 148°
2026-05-04 14:35 40.01407 116.66177 1905 ft 226 kts 147°
2026-05-04 14:35 40.00105 116.67493 2230 ft 246 kts 148°
2026-05-04 14:35 39.98789 116.69020 2844 ft 263 kts 135°
2026-05-04 14:36 39.98057 116.71254 3544 ft 280 kts 99°
2026-05-04 14:36 39.98186 116.73808 4306 ft 286 kts 83°
2026-05-04 14:36 39.98535 116.76368 4806 ft 288 kts 82°
2026-05-04 14:36 39.98880 116.78944 4971 ft 289 kts 82°
2026-05-04 14:37 39.99202 116.81533 5148 ft 290 kts 83°
2026-05-04 14:37 39.99508 116.84139 5710 ft 292 kts 83°
2026-05-04 14:37 39.99807 116.86758 6583 ft 292 kts 82°
2026-05-04 14:37 40.00103 116.89381 7391 ft 294 kts 82°
2026-05-04 14:38 40.00399 116.92035 8234 ft 297 kts 81°
2026-05-04 14:38 40.00697 116.94711 9091 ft 299 kts 81°
2026-05-04 14:38 40.00996 116.97407 9929 ft 302 kts 80°
2026-05-04 14:38 40.01194 116.99212 10409 ft 307 kts 80°
2026-05-04 14:39 40.01510 117.02050 10783 ft 326 kts 79°
2026-05-04 14:39 40.02136 117.04965 11109 ft 342 kts 62°
2026-05-04 14:39 40.04259 117.08049 11552 ft 356 kts 28°
2026-05-04 14:40 40.09120 117.08954 12487 ft 366 kts 343°
2026-05-04 14:40 40.11506 117.07772 13195 ft 369 kts 336°
2026-05-04 14:40 40.13998 117.06868 13895 ft 374 kts 347°
2026-05-04 14:40 40.15730 117.06439 14338 ft 377 kts 349°
2026-05-04 14:41 40.18335 117.05864 14992 ft 381 kts 349°
2026-05-04 14:41 40.20970 117.05327 15656 ft 386 kts 350°
2026-05-04 14:41 40.26328 117.04292 17025 ft 393 kts 351°
2026-05-04 14:42 40.31310 117.02549 18248 ft 398 kts 329°
2026-05-04 14:42 40.33459 117.00192 18831 ft 402 kts 310°
2026-05-04 14:42 40.34869 116.97073 19406 ft 407 kts 292°
2026-05-04 14:43 40.35448 116.93422 20002 ft 415 kts 274°
2026-05-04 14:43 40.35102 116.89652 20634 ft 423 kts 256°
2026-05-04 14:43 40.33966 116.86008 21272 ft 429 kts 249°
2026-05-04 14:43 40.33171 116.82309 21866 ft 428 kts 261°
2026-05-04 14:44 40.32692 116.78394 22485 ft 432 kts 264°
2026-05-04 14:44 40.32340 116.74525 23122 ft 435 kts 266°
2026-05-04 14:44 40.32046 116.70564 23683 ft 439 kts 267°
2026-05-04 14:44 40.31786 116.66567 24185 ft 442 kts 267°
2026-05-04 14:45 40.31543 116.62538 24716 ft 446 kts 268°
2026-05-04 14:45 40.31308 116.58469 25224 ft 449 kts 268°
2026-05-04 14:45 40.31075 116.54369 25719 ft 453 kts 268°
2026-05-04 14:45 40.30841 116.50229 26200 ft 457 kts 268°
2026-05-04 14:46 40.30606 116.46063 26695 ft 461 kts 269°
2026-05-04 14:46 40.30369 116.41855 27232 ft 464 kts 269°
2026-05-04 14:46 40.30129 116.37630 27717 ft 468 kts 269°
2026-05-04 14:46 40.29886 116.33364 28226 ft 471 kts 269°
2026-05-04 14:47 40.29640 116.29077 28726 ft 473 kts 269°
2026-05-04 14:47 40.29391 116.24763 29180 ft 477 kts 269°
2026-05-04 14:47 40.29138 116.20404 29552 ft 482 kts 269°
2026-05-04 14:47 40.28881 116.16020 29972 ft 485 kts 269°
2026-05-04 14:48 40.28622 116.11615 30444 ft 484 kts 269°
2026-05-04 14:48 40.28332 116.07230 30973 ft 484 kts 267°
2026-05-04 14:48 40.27600 116.02908 31381 ft 491 kts 254°
2026-05-04 14:48 40.26062 115.98881 31791 ft 500 kts 239°
2026-05-04 14:49 40.23767 115.95437 32175 ft 507 kts 225°
2026-05-04 14:49 40.21060 115.92443 32523 ft 511 kts 222°
2026-05-04 14:49 40.18301 115.89529 32870 ft 511 kts 222°
2026-05-04 14:49 40.15531 115.86599 33283 ft 511 kts 223°
2026-05-04 14:50 40.12776 115.83668 33672 ft 510 kts 223°
2026-05-04 14:50 40.10018 115.80734 33975 ft 511 kts 223°
2026-05-04 14:50 40.07266 115.77803 34358 ft 509 kts 223°
2026-05-04 14:50 40.04535 115.74895 34840 ft 504 kts 223°
2026-05-04 14:51 40.01828 115.72014 35252 ft 501 kts 223°
2026-05-04 14:51 39.99128 115.69140 35585 ft 500 kts 223°
2026-05-04 14:51 39.96436 115.66278 35912 ft 499 kts 223°
2026-05-04 14:51 39.93742 115.63416 36216 ft 498 kts 223°
2026-05-04 14:52 39.91057 115.60568 36513 ft 498 kts 223°
2026-05-04 14:52 39.88373 115.57722 36773 ft 497 kts 223°
2026-05-04 14:52 39.85683 115.54872 36909 ft 499 kts 223°
2026-05-04 14:52 39.82986 115.52017 36908 ft 501 kts 223°
2026-05-04 14:53 39.77683 115.46129 36913 ft 499 kts 230°
2026-05-04 14:53 39.73705 115.38916 36915 ft 488 kts 245°
2026-05-04 14:54 39.70553 115.31106 36916 ft 488 kts 248°
2026-05-04 14:54 39.67517 115.23207 36919 ft 488 kts 248°
2026-05-04 14:55 39.64467 115.15404 36917 ft 489 kts 247°
2026-05-04 14:55 39.61348 115.07557 36923 ft 489 kts 247°
2026-05-04 14:56 39.58209 114.99727 36915 ft 490 kts 247°
2026-05-04 14:56 39.55068 114.91908 36928 ft 489 kts 247°
2026-05-04 14:57 39.51926 114.84093 36928 ft 489 kts 247°
2026-05-04 14:57 39.48780 114.76286 36928 ft 489 kts 247°
2026-05-04 14:58 39.45631 114.68491 36938 ft 489 kts 246°
2026-05-04 14:58 39.42468 114.60686 36936 ft 490 kts 246°
2026-05-04 14:59 39.39301 114.52892 36942 ft 490 kts 246°
2026-05-04 15:00 39.34000 114.41583 36939 ft 498 kts 230°
2026-05-04 15:00 39.31369 114.38646 36936 ft 504 kts 217°
2026-05-04 15:00 39.28295 114.36566 36945 ft 510 kts 202°
2026-05-04 15:01 39.21217 114.35480 36936 ft 518 kts 172°
2026-05-04 15:01 39.17773 114.36609 36939 ft 519 kts 158°
2026-05-04 15:01 39.10888 114.39300 36930 ft 519 kts 173°
2026-05-04 15:02 39.03767 114.40658 36914 ft 517 kts 171°
2026-05-04 15:02 38.96700 114.42414 36917 ft 517 kts 169°
2026-05-04 15:03 38.89649 114.44263 36894 ft 517 kts 169°
2026-05-04 15:03 38.82608 114.46078 36902 ft 516 kts 169°
2026-05-04 15:04 38.75560 114.47867 36895 ft 516 kts 169°
2026-05-04 15:04 38.68520 114.49652 36884 ft 516 kts 169°
2026-05-04 15:05 38.61493 114.51431 36890 ft 515 kts 170°
2026-05-04 15:05 38.54469 114.53221 36883 ft 514 kts 169°
2026-05-04 15:06 38.47446 114.55006 36884 ft 514 kts 170°
2026-05-04 15:07 38.36899 114.57519 36884 ft 514 kts 171°
2026-05-04 15:07 38.29858 114.59044 36961 ft 511 kts 171°
2026-05-04 15:08 38.22877 114.60576 36965 ft 508 kts 172°
2026-05-04 15:08 38.15924 114.62123 36984 ft 507 kts 171°
2026-05-04 15:09 38.08987 114.63671 36981 ft 506 kts 171°
2026-05-04 15:09 38.02045 114.65217 36979 ft 506 kts 171°
2026-05-04 15:10 37.91674 114.67520 36967 ft 507 kts 172°
2026-05-04 15:11 37.81257 114.69826 36964 ft 507 kts 172°
2026-05-04 15:11 37.74311 114.71361 36965 ft 508 kts 172°
2026-05-04 15:12 37.67345 114.72896 36965 ft 509 kts 172°
2026-05-04 15:12 37.60372 114.74431 36964 ft 509 kts 172°
2026-05-04 15:13 37.53398 114.75963 36964 ft 509 kts 172°
2026-05-04 15:13 37.46411 114.77500 36965 ft 510 kts 172°
2026-05-04 15:14 37.39423 114.79019 36968 ft 510 kts 172°
2026-05-04 15:14 37.32427 114.80531 36949 ft 510 kts 172°
2026-05-04 15:15 37.25446 114.82051 36967 ft 509 kts 172°
2026-05-04 15:15 37.18487 114.83669 36970 ft 509 kts 171°
2026-05-04 15:16 37.08045 114.86130 36965 ft 509 kts 171°
2026-05-04 15:17 36.97627 114.88550 36978 ft 507 kts 172°
2026-05-04 15:17 36.87216 114.90952 36980 ft 507 kts 172°
2026-05-04 15:18 36.80274 114.92552 36983 ft 507 kts 172°
2026-05-04 15:19 36.69865 114.94945 36987 ft 507 kts 172°
2026-05-04 15:19 36.59450 114.97333 36986 ft 507 kts 172°
2026-05-04 15:20 36.52506 114.98921 36989 ft 508 kts 172°
2026-05-04 15:20 36.45553 115.00509 36993 ft 508 kts 172°
2026-05-04 15:21 36.38604 115.02058 36981 ft 506 kts 175°
2026-05-04 15:21 36.31634 115.02351 36994 ft 499 kts 186°
2026-05-04 15:22 36.28163 115.02106 36998 ft 499 kts 187°
2026-05-04 15:22 36.17798 115.01006 36995 ft 499 kts 188°
2026-05-04 15:23 36.10880 115.00253 36999 ft 499 kts 188°
2026-05-04 15:23 36.03956 114.99534 37001 ft 499 kts 188°
2026-05-04 15:24 35.90098 114.98128 37000 ft 499 kts 188°
2026-05-04 15:25 35.83176 114.97427 37006 ft 499 kts 188°
2026-05-04 15:26 35.72788 114.96375 37011 ft 499 kts 188°
2026-05-04 15:26 35.63566 114.95444 37017 ft 500 kts 188°
2026-05-04 15:27 35.53165 114.94396 37019 ft 500 kts 188°
2026-05-04 15:28 35.42767 114.93352 37023 ft 500 kts 188°
2026-05-04 15:29 35.32357 114.92308 37029 ft 500 kts 188°
2026-05-04 15:30 35.08069 114.89885 37042 ft 500 kts 188°
2026-05-04 15:31 34.97671 114.88852 37043 ft 499 kts 188°
2026-05-04 15:32 34.80431 114.87144 37046 ft 498 kts 188°
2026-05-04 15:34 34.63173 114.85442 37054 ft 497 kts 188°
2026-05-04 15:34 34.52825 114.84425 37055 ft 498 kts 188°
2026-05-04 15:35 34.42471 114.83410 37063 ft 498 kts 188°
2026-05-04 15:36 34.32117 114.82397 37062 ft 498 kts 188°
2026-05-04 15:36 34.25213 114.81724 37066 ft 498 kts 188°
2026-05-04 15:37 34.18309 114.81051 37071 ft 498 kts 188°
2026-05-04 15:37 34.11401 114.80391 37057 ft 498 kts 188°
2026-05-04 15:38 34.04499 114.79724 37071 ft 498 kts 188°
2026-05-04 15:38 33.97595 114.79058 37071 ft 498 kts 188°
2026-05-04 15:39 33.90688 114.78395 37076 ft 498 kts 188°
2026-05-04 15:40 33.80330 114.77406 37077 ft 498 kts 188°
2026-05-04 15:40 33.73427 114.76712 37077 ft 498 kts 189°
2026-05-04 15:41 33.66573 114.76031 37072 ft 498 kts 188°
2026-05-04 15:41 33.59622 114.75389 37080 ft 498 kts 188°
2026-05-04 15:42 33.52765 114.74734 37080 ft 497 kts 189°
2026-05-04 15:42 33.45877 114.74008 37082 ft 497 kts 189°
2026-05-04 15:43 33.38981 114.73319 37079 ft 497 kts 189°
2026-05-04 15:43 33.32095 114.72659 37083 ft 496 kts 189°
2026-05-04 15:44 33.25214 114.72002 37093 ft 496 kts 189°
2026-05-04 15:44 33.18335 114.71345 37064 ft 496 kts 189°
2026-05-04 15:45 33.11464 114.70671 37090 ft 494 kts 189°
2026-05-04 15:45 33.04615 114.69987 37093 ft 494 kts 189°
2026-05-04 15:46 32.97770 114.69307 37093 ft 494 kts 189°
2026-05-04 15:46 32.90922 114.68633 37088 ft 493 kts 189°
2026-05-04 15:47 32.84089 114.67973 37095 ft 492 kts 189°
2026-05-04 15:47 32.77271 114.67330 37097 ft 492 kts 189°
2026-05-04 15:48 32.71533 114.66790 37097 ft 492 kts 189°
2026-05-04 15:48 32.61174 114.65807 37103 ft 505 kts 189°
2026-05-04 15:49 32.54107 114.65141 37102 ft 512 kts 189°
2026-05-04 15:49 32.47006 114.64478 37106 ft 512 kts 189°
2026-05-04 15:50 32.39902 114.63818 37104 ft 511 kts 190°
2026-05-04 15:50 32.32819 114.63155 37104 ft 510 kts 190°
2026-05-04 15:51 32.25745 114.62457 37104 ft 510 kts 190°
2026-05-04 15:51 32.18665 114.61759 37103 ft 510 kts 191°
2026-05-04 15:52 32.11608 114.61071 37112 ft 509 kts 191°
2026-05-04 15:52 32.04552 114.60386 37113 ft 509 kts 191°
2026-05-04 15:53 31.97499 114.59704 37082 ft 509 kts 191°
2026-05-04 15:53 31.90462 114.59025 37121 ft 507 kts 191°
2026-05-04 15:54 31.83434 114.58348 37120 ft 506 kts 191°
2026-05-04 15:54 31.76412 114.57671 37124 ft 506 kts 191°
2026-05-04 15:55 31.69382 114.56996 37122 ft 507 kts 191°
2026-05-04 15:55 31.62362 114.56324 37124 ft 507 kts 191°
2026-05-04 15:56 31.55379 114.55658 37121 ft 506 kts 191°
2026-05-04 15:56 31.48354 114.54984 37126 ft 506 kts 191°
2026-05-04 15:57 31.41332 114.54312 37124 ft 506 kts 191°
2026-05-04 15:57 31.34264 114.53638 37130 ft 506 kts 191°
2026-05-04 15:58 31.27241 114.52971 37124 ft 506 kts 191°
2026-05-04 15:58 31.23782 114.52387 37097 ft 496 kts 202°
2026-05-04 15:58 31.20597 114.51122 37121 ft 486 kts 210°
2026-05-04 15:59 31.14564 114.47669 37126 ft 482 kts 214°
2026-05-04 15:59 31.08620 114.44046 37123 ft 483 kts 213°
2026-05-04 16:00 31.02589 114.40569 37124 ft 484 kts 212°
2026-05-04 16:00 30.96509 114.37195 37122 ft 484 kts 212°
2026-05-04 16:01 30.90407 114.33854 37121 ft 485 kts 211°
2026-05-04 16:01 30.84248 114.30623 37120 ft 486 kts 211°
2026-05-04 16:02 30.78077 114.27419 37121 ft 485 kts 211°
2026-05-04 16:03 30.68936 114.22451 37117 ft 483 kts 212°
2026-05-04 16:03 30.62854 114.19124 37122 ft 483 kts 212°
2026-05-04 16:04 30.56763 114.15819 37125 ft 483 kts 212°
2026-05-04 16:04 30.47639 114.10892 37111 ft 481 kts 212°
2026-05-04 16:05 30.41583 114.07620 37110 ft 480 kts 212°
2026-05-04 16:06 30.32516 114.02729 37115 ft 483 kts 212°
2026-05-04 16:07 30.20355 113.96202 37109 ft 481 kts 213°
2026-05-04 16:08 30.08217 113.89708 37110 ft 481 kts 213°
2026-05-04 16:09 29.93055 113.81625 37110 ft 480 kts 213°
2026-05-04 16:09 29.86731 113.78931 37109 ft 494 kts 201°
2026-05-04 16:10 29.79821 113.77843 37103 ft 506 kts 193°
2026-05-04 16:11 29.65694 113.76935 37113 ft 509 kts 192°
2026-05-04 16:12 29.44524 113.75515 37135 ft 507 kts 193°
2026-05-04 16:13 29.30410 113.74529 37104 ft 509 kts 193°
2026-05-04 16:14 29.17397 113.73937 37142 ft 517 kts 188°
2026-05-04 16:16 28.99396 113.74748 37145 ft 517 kts 188°
2026-05-04 16:17 28.81447 113.75255 37149 ft 515 kts 188°
2026-05-04 16:18 28.67255 113.75054 37153 ft 505 kts 193°
2026-05-04 16:19 28.49682 113.73736 37118 ft 507 kts 193°
2026-05-04 16:20 28.32103 113.72433 37153 ft 506 kts 193°
2026-05-04 16:22 28.14523 113.71180 37151 ft 505 kts 193°
2026-05-04 16:23 27.93556 113.69350 37144 ft 503 kts 194°
2026-05-04 16:25 27.72640 113.67468 37149 ft 502 kts 194°
2026-05-04 16:26 27.48115 113.66303 37150 ft 509 kts 190°
2026-05-04 16:28 27.30485 113.65974 37153 ft 506 kts 191°